Location: Seattle
(47.6064°N, 122.3308°W)
Time: 01:16:28
(UTC-08:00)

A-11 Canister half - Pass Details

Date: 05 December 2020
Orbit: 1524 x 1684 km, 47.3° (Epoch: 27 January)

Event Time Altitude Azimuth Distance (km) Brightness Sun altitude
Rises 08:40:58 0° 283° (WNW) 4,934 11.1 6.9°
Reaches altitude 10° 08:44:10 10° 282° (WNW) 3,936 10.7 7.2°
Maximum altitude 08:54:14 76° 200° (SSW) 1,688 9.5 8.4°
Drops below altitude 10° 09:03:59 10° 116° (ESE) 3,817 12.6 9.5°
Sets 09:07:01 0° 115° (ESE) 4,780 12.9 9.8°
